Time,TemperatureF,DewpointF,PressureIn,WindDirection,WindDirectionDegrees,WindSpeedMPH,WindSpeedGustMPH,Humidity,HourlyPrecipIn,Conditions,Clouds,dailyrainin,SolarRadiationWatts/m^2,SoftwareType,DateUTC
2013-08-25 00:01:00,66.0,51.0,-100.00,WNW,303,3.0,11.0,59,0.00,,,0.00,0.000000,,2013-08-25 07:01:00,
2013-08-25 00:02:00,66.0,52.0,-100.00,SE,144,4.0,13.0,61,0.00,,,0.00,0.000000,,2013-08-25 07:02:00,
2013-08-25 00:42:00,66.0,52.0,-100.00,SE,144,4.0,13.0,61,0.00,,,0.00,0.000000,,2013-08-25 07:42:00,
2013-08-25 00:52:00,66.0,52.0,-100.00,SE,144,4.0,13.0,61,0.00,,,0.00,0.000000,,2013-08-25 07:52:00,
2013-08-25 01:21:00,68.0,53.0,-100.00,SE,140,6.0,15.0,58,0.00,,,0.00,0.000000,,2013-08-25 08:21:00,
2013-08-25 01:32:00,68.0,53.0,-100.00,SE,140,6.0,15.0,58,0.00,,,0.00,0.000000,,2013-08-25 08:32:00,
2013-08-25 01:42:00,68.0,53.0,-100.00,SE,140,6.0,15.0,58,0.00,,,0.00,0.000000,,2013-08-25 08:42:00,
2013-08-25 01:52:00,68.0,53.0,-100.00,SE,140,6.0,15.0,58,0.00,,,0.00,0.000000,,2013-08-25 08:52:00,
2013-08-25 02:01:00,68.0,53.0,-100.00,SE,140,6.0,15.0,58,0.00,,,0.00,0.000000,,2013-08-25 09:01:00,
2013-08-25 02:02:00,67.0,52.0,-100.00,NNE,23,4.0,12.0,59,0.00,,,0.00,0.000000,,2013-08-25 09:02:00,
2013-08-25 02:44:00,67.0,52.0,-100.00,NNE,23,4.0,12.0,59,0.00,,,0.00,0.000000,,2013-08-25 09:44:00,
2013-08-25 02:55:00,67.0,52.0,-100.00,NNE,23,4.0,12.0,59,0.00,,,0.00,0.000000,,2013-08-25 09:55:00,
2013-08-25 03:02:00,65.0,53.0,-100.00,NNE,27,3.0,7.0,64,0.00,,,0.00,0.000000,,2013-08-25 10:02:00,
2013-08-25 03:42:00,65.0,53.0,-100.00,NNE,27,3.0,7.0,64,0.00,,,0.00,0.000000,,2013-08-25 10:42:00,
2013-08-25 03:53:00,65.0,53.0,-100.00,NNE,27,3.0,7.0,64,0.00,,,0.00,0.000000,,2013-08-25 10:53:00,
2013-08-25 04:42:00,62.0,52.0,-100.00,ENE,72,2.0,6.0,69,0.00,,,0.00,0.000000,,2013-08-25 11:42:00,
2013-08-25 04:52:00,62.0,52.0,-100.00,ENE,72,2.0,6.0,69,0.00,,,0.00,0.000000,,2013-08-25 11:52:00,
2013-08-25 05:01:00,62.0,52.0,-100.00,ENE,72,2.0,6.0,69,0.00,,,0.00,0.000000,,2013-08-25 12:01:00,
2013-08-25 05:02:00,61.0,52.0,-100.00,East,88,3.0,7.0,71,0.00,,,0.00,0.000000,,2013-08-25 12:02:00,
2013-08-25 05:43:00,61.0,52.0,-100.00,East,88,3.0,7.0,71,0.00,,,0.00,0.000000,,2013-08-25 12:43:00,
2013-08-25 05:52:00,61.0,52.0,-100.00,East,88,3.0,7.0,71,0.00,,,0.00,0.000000,,2013-08-25 12:52:00,
2013-08-25 06:02:00,63.0,52.0,-100.00,East,90,4.0,6.0,68,0.00,,,0.00,0.000000,,2013-08-25 13:02:00,
2013-08-25 06:42:00,63.0,52.0,-100.00,East,90,4.0,6.0,68,0.00,,,0.00,0.000000,,2013-08-25 13:42:00,
2013-08-25 06:52:00,63.0,52.0,-100.00,East,90,4.0,6.0,68,0.00,,,0.00,0.000000,,2013-08-25 13:52:00,
2013-08-25 07:42:00,65.0,55.0,-100.00,SSW,203,3.0,9.0,69,0.00,,,0.00,12.000000,,2013-08-25 14:42:00,
2013-08-25 07:52:00,65.0,55.0,-100.00,SSW,203,3.0,9.0,69,0.00,,,0.00,12.000000,,2013-08-25 14:52:00,
2013-08-25 08:01:00,65.0,55.0,-100.00,SSW,203,3.0,9.0,69,0.00,,,0.00,12.000000,,2013-08-25 15:01:00,
2013-08-25 08:02:00,71.0,54.0,-100.00,South,184,4.0,10.0,55,0.00,,,0.00,124.000000,,2013-08-25 15:02:00,
2013-08-25 08:44:00,71.0,54.0,-100.00,South,184,4.0,10.0,55,0.00,,,0.00,124.000000,,2013-08-25 15:44:00,
2013-08-25 08:54:00,71.0,54.0,-100.00,South,184,4.0,10.0,55,0.00,,,0.00,124.000000,,2013-08-25 15:54:00,
2013-08-25 09:02:00,74.0,51.0,-100.00,SSE,164,9.0,15.0,44,0.00,,,-99.99,436.000000,,2013-08-25 16:02:00,
2013-08-25 09:44:00,74.0,51.0,-100.00,SSE,164,9.0,15.0,44,0.00,,,-99.99,436.000000,,2013-08-25 16:44:00,
2013-08-25 09:54:00,74.0,51.0,-100.00,SSE,164,9.0,15.0,44,0.00,,,-99.99,436.000000,,2013-08-25 16:54:00,
2013-08-25 10:02:00,77.0,49.0,-100.00,ESE,116,8.0,17.0,38,0.00,,,0.00,673.000000,,2013-08-25 17:02:00,
2013-08-25 10:43:00,77.0,49.0,-100.00,ESE,116,8.0,17.0,38,0.00,,,0.00,673.000000,,2013-08-25 17:43:00,
2013-08-25 10:53:00,77.0,49.0,-100.00,ESE,116,8.0,17.0,38,0.00,,,0.00,673.000000,,2013-08-25 17:53:00,
2013-08-25 11:02:00,78.0,50.0,-100.00,SSE,152,6.0,16.0,37,0.00,,,0.00,869.000000,,2013-08-25 18:02:00,
2013-08-25 11:43:00,78.0,50.0,-100.00,SSE,152,6.0,16.0,37,0.00,,,0.00,869.000000,,2013-08-25 18:43:00,
2013-08-25 11:52:00,78.0,50.0,-100.00,SSE,152,6.0,16.0,37,0.00,,,0.00,869.000000,,2013-08-25 18:52:00,
2013-08-25 12:02:00,80.0,49.0,-100.00,SSE,164,8.0,17.0,34,0.00,,,0.00,1005.000000,,2013-08-25 19:02:00,
2013-08-25 12:42:00,80.0,49.0,-100.00,SSE,164,8.0,17.0,34,0.00,,,0.00,1005.000000,,2013-08-25 19:42:00,
2013-08-25 12:53:00,80.0,49.0,-100.00,SSE,164,8.0,17.0,34,0.00,,,0.00,1005.000000,,2013-08-25 19:53:00,
2013-08-25 13:43:00,80.0,52.0,-100.00,SE,137,9.0,19.0,38,0.00,,,0.00,1071.000000,,2013-08-25 20:43:00,
2013-08-25 13:53:00,80.0,52.0,-100.00,SE,137,9.0,19.0,38,0.00,,,0.00,1071.000000,,2013-08-25 20:53:00,
2013-08-25 14:01:00,80.0,52.0,-100.00,SE,137,9.0,19.0,38,0.00,,,0.00,1071.000000,,2013-08-25 21:01:00,
2013-08-25 14:02:00,82.0,49.0,-100.00,SSE,151,10.0,19.0,32,0.00,,,0.00,1073.000000,,2013-08-25 21:02:00,
2013-08-25 14:43:00,82.0,49.0,-100.00,SSE,151,10.0,19.0,32,0.00,,,0.00,1073.000000,,2013-08-25 21:43:00,
2013-08-25 14:54:00,82.0,49.0,-100.00,SSE,151,10.0,19.0,32,0.00,,,0.00,1073.000000,,2013-08-25 21:54:00,
2013-08-25 15:02:00,82.0,49.0,-100.00,SSE,157,9.0,20.0,32,0.00,,,0.00,1015.000000,,2013-08-25 22:02:00,
2013-08-25 15:43:00,82.0,49.0,-100.00,SSE,157,9.0,20.0,32,0.00,,,0.00,1015.000000,,2013-08-25 22:43:00,
2013-08-25 15:53:00,82.0,49.0,-100.00,SSE,157,9.0,20.0,32,0.00,,,0.00,1015.000000,,2013-08-25 22:53:00,
2013-08-25 16:02:00,80.0,47.0,-100.00,South,174,12.0,18.0,32,0.00,,,-99.99,873.000000,,2013-08-25 23:02:00,
2013-08-25 16:43:00,80.0,47.0,-100.00,South,174,12.0,18.0,32,0.00,,,-99.99,873.000000,,2013-08-25 23:43:00,
2013-08-25 16:53:00,80.0,47.0,-100.00,South,174,12.0,18.0,32,0.00,,,-99.99,873.000000,,2013-08-25 23:53:00,
2013-08-25 17:22:00,79.0,49.0,-100.00,SE,145,11.0,19.0,35,0.00,,,0.00,693.000000,,2013-08-26 00:22:00,
2013-08-25 17:32:00,79.0,49.0,-100.00,SE,145,11.0,19.0,35,0.00,,,0.00,693.000000,,2013-08-26 00:32:00,
2013-08-25 17:42:00,79.0,49.0,-100.00,SE,145,11.0,19.0,35,0.00,,,0.00,693.000000,,2013-08-26 00:42:00,
2013-08-25 17:52:00,79.0,49.0,-100.00,SE,145,11.0,19.0,35,0.00,,,0.00,693.000000,,2013-08-26 00:52:00,
2013-08-25 18:01:00,79.0,49.0,-100.00,SE,145,11.0,19.0,35,0.00,,,0.00,693.000000,,2013-08-26 01:01:00,
2013-08-25 18:02:00,76.0,44.0,-100.00,SSE,148,11.0,20.0,32,0.00,,,0.00,450.000000,,2013-08-26 01:02:00,
2013-08-25 18:42:00,76.0,44.0,-100.00,SSE,148,11.0,20.0,32,0.00,,,0.00,450.000000,,2013-08-26 01:42:00,
2013-08-25 18:52:00,76.0,44.0,-100.00,SSE,148,11.0,20.0,32,0.00,,,0.00,450.000000,,2013-08-26 01:52:00,
2013-08-25 19:02:00,71.0,33.0,-100.00,SSE,147,10.0,21.0,25,0.00,,,-99.99,197.000000,,2013-08-26 02:02:00,
2013-08-25 19:42:00,71.0,33.0,-100.00,SSE,147,10.0,21.0,25,0.00,,,-99.99,197.000000,,2013-08-26 02:42:00,
2013-08-25 19:52:00,71.0,33.0,-100.00,SSE,147,10.0,21.0,25,0.00,,,-99.99,197.000000,,2013-08-26 02:52:00,
2013-08-25 20:02:00,68.0,41.0,-100.00,SE,128,8.0,22.0,37,0.00,,,0.00,13.000000,,2013-08-26 03:02:00,
2013-08-25 20:44:00,68.0,41.0,-100.00,SE,128,8.0,22.0,37,0.00,,,0.00,13.000000,,2013-08-26 03:44:00,
2013-08-25 20:56:00,68.0,41.0,-100.00,SE,128,8.0,22.0,37,0.00,,,0.00,13.000000,,2013-08-26 03:56:00,
2013-08-25 21:02:00,67.0,54.0,-100.00,SE,131,10.0,19.0,62,0.00,,,0.00,0.000000,,2013-08-26 04:02:00,
2013-08-25 21:44:00,67.0,54.0,-100.00,SE,131,10.0,19.0,62,0.00,,,0.00,0.000000,,2013-08-26 04:44:00,
2013-08-25 21:53:00,67.0,54.0,-100.00,SE,131,10.0,19.0,62,0.00,,,0.00,0.000000,,2013-08-26 04:53:00,
2013-08-25 22:02:00,66.0,53.0,-100.00,ESE,120,11.0,19.0,63,0.00,,,0.00,0.000000,,2013-08-26 05:02:00,
2013-08-25 22:44:00,66.0,53.0,-100.00,ESE,120,11.0,19.0,63,0.00,,,0.00,0.000000,,2013-08-26 05:44:00,
2013-08-25 22:52:00,66.0,53.0,-100.00,ESE,120,11.0,19.0,63,0.00,,,0.00,0.000000,,2013-08-26 05:52:00,
2013-08-25 23:42:00,65.0,50.0,-100.00,SE,129,9.0,16.0,59,0.00,,,0.00,0.000000,,2013-08-26 06:42:00,
2013-08-25 23:52:00,65.0,50.0,-100.00,SE,129,9.0,16.0,59,0.00,,,0.00,0.000000,,2013-08-26 06:52:00,